GLO1613 SBGL-SBSP

Flight info

Callsign GLO1613
Flight time 0h 50m
Altitude 26000
Route NAXOP UZ45 IBDAL
Aircraft B738/M-SDFGIKLORWXY/LB1

Departure

Time 2026-05-04 23:49
Airport Rio Galeão – Tom Jobim International Airport (SBGL)

Arrival

Time 2026-05-05 00:40
Airport Congonhas–Deputado Freitas Nobre Airport (SBSP)
Time Latitude Longitude Altitude Speed Heading
2026-05-04 23:41 -22.81048 -43.25331 32 ft 0 kts 93°
2026-05-04 23:42 -22.81049 -43.25346 31 ft 2 kts 75°
2026-05-04 23:43 -22.81054 -43.25362 31 ft 2 kts 62°
2026-05-04 23:43 -22.81062 -43.25375 31 ft 2 kts 46°
2026-05-04 23:43 -22.81073 -43.25386 31 ft 2 kts 32°
2026-05-04 23:43 -22.81086 -43.25393 31 ft 2 kts 17°
2026-05-04 23:44 -22.81101 -43.25396 31 ft 2 kts
2026-05-04 23:44 -22.81116 -43.25394 32 ft 2 kts 347°
2026-05-04 23:44 -22.81125 -43.25392 32 ft 0 kts 339°
2026-05-04 23:45 -22.81124 -43.25392 32 ft 1 kts 340°
2026-05-04 23:45 -22.81089 -43.25408 31 ft 7 kts 336°
2026-05-04 23:45 -22.81039 -43.25436 29 ft 8 kts 329°
2026-05-04 23:46 -22.80985 -43.25475 28 ft 9 kts 323°
2026-05-04 23:46 -22.80930 -43.25522 28 ft 9 kts 317°
2026-05-04 23:46 -22.80889 -43.25579 28 ft 9 kts 315°
2026-05-04 23:46 -22.80798 -43.25571 25 ft 19 kts 37°
2026-05-04 23:47 -22.80688 -43.25483 24 ft 19 kts 35°
2026-05-04 23:47 -22.80583 -43.25480 24 ft 15 kts 310°
2026-05-04 23:47 -22.80515 -43.25550 24 ft 13 kts 324°
2026-05-04 23:47 -22.80440 -43.25604 24 ft 12 kts 330°
2026-05-04 23:48 -22.80356 -43.25601 24 ft 14 kts 33°
2026-05-04 23:48 -22.80270 -43.25529 24 ft 15 kts 37°
2026-05-04 23:48 -22.80185 -43.25462 24 ft 14 kts 53°
2026-05-04 23:48 -22.80145 -43.25342 24 ft 29 kts 74°
2026-05-04 23:49 -22.80029 -43.24893 24 ft 92 kts 74°
2026-05-04 23:49 -22.79804 -43.24034 24 ft 143 kts 74°
2026-05-04 23:49 -22.79483 -43.22834 79 ft 178 kts 75°
2026-05-04 23:49 -22.79163 -43.21606 801 ft 167 kts 73°
2026-05-04 23:50 -22.78891 -43.20405 1491 ft 164 kts 77°
2026-05-04 23:50 -22.78662 -43.19172 1962 ft 174 kts 76°
2026-05-04 23:50 -22.78386 -43.17831 2362 ft 190 kts 75°
2026-05-04 23:50 -22.78068 -43.16364 2732 ft 209 kts 75°
2026-05-04 23:51 -22.77729 -43.14787 3180 ft 224 kts 75°
2026-05-04 23:51 -22.77367 -43.13089 3672 ft 237 kts 75°
2026-05-04 23:51 -22.76993 -43.11334 4290 ft 244 kts 76°
2026-05-04 23:51 -22.76610 -43.09532 4923 ft 250 kts 76°
2026-05-04 23:52 -22.76215 -43.07673 5562 ft 255 kts 76°
2026-05-04 23:52 -22.75868 -43.05808 6218 ft 259 kts 83°
2026-05-04 23:52 -22.75964 -43.03857 6877 ft 263 kts 108°
2026-05-04 23:52 -22.76842 -43.02154 7585 ft 263 kts 133°
2026-05-04 23:53 -22.78244 -43.00891 8283 ft 264 kts 148°
2026-05-04 23:53 -22.79803 -42.99865 8980 ft 267 kts 151°
2026-05-04 23:53 -22.81423 -42.98855 9689 ft 270 kts 151°
2026-05-04 23:53 -22.83113 -42.97937 10375 ft 273 kts 161°
2026-05-04 23:54 -22.84973 -42.97567 11064 ft 274 kts 184°
2026-05-04 23:54 -22.86834 -42.98023 11634 ft 281 kts 205°
2026-05-04 23:54 -22.88541 -42.99144 12055 ft 294 kts 218°
2026-05-04 23:54 -22.90197 -43.00548 12473 ft 309 kts 220°
2026-05-04 23:55 -22.91908 -43.02049 12889 ft 325 kts 220°
2026-05-04 23:55 -22.93700 -43.03618 13336 ft 338 kts 220°
2026-05-04 23:55 -22.97417 -43.06839 14778 ft 346 kts 220°
2026-05-04 23:56 -22.99313 -43.08473 15576 ft 348 kts 220°
2026-05-04 23:56 -23.01224 -43.10123 16323 ft 352 kts 220°
2026-05-04 23:56 -23.03119 -43.11774 17052 ft 354 kts 221°
2026-05-04 23:56 -23.05036 -43.13451 17767 ft 357 kts 221°
2026-05-04 23:57 -23.06964 -43.15142 18464 ft 360 kts 221°
2026-05-04 23:57 -23.08941 -43.16875 19147 ft 364 kts 221°
2026-05-04 23:57 -23.10889 -43.18582 19818 ft 367 kts 221°
2026-05-04 23:57 -23.12895 -43.20338 20479 ft 370 kts 221°
2026-05-04 23:58 -23.14884 -43.22078 21124 ft 372 kts 221°
2026-05-04 23:58 -23.16913 -43.23854 21776 ft 374 kts 221°
2026-05-04 23:58 -23.18944 -43.25634 22367 ft 378 kts 221°
2026-05-04 23:58 -23.20983 -43.27420 23217 ft 373 kts 221°
2026-05-04 23:59 -23.22984 -43.29172 24054 ft 368 kts 221°
2026-05-04 23:59 -23.24952 -43.30897 24773 ft 366 kts 221°
2026-05-04 23:59 -23.26929 -43.32633 25477 ft 364 kts 221°
2026-05-04 23:59 -23.28896 -43.34360 26058 ft 364 kts 221°
2026-05-05 00:00 -23.30844 -43.36151 26172 ft 366 kts 226°
2026-05-05 00:00 -23.32008 -43.37504 26174 ft 361 kts 233°
2026-05-05 00:00 -23.33757 -43.40559 26181 ft 357 kts 246°
2026-05-05 00:00 -23.34672 -43.43071 26179 ft 357 kts 252°
2026-05-05 00:01 -23.35378 -43.45648 26178 ft 358 kts 255°
2026-05-05 00:01 -23.35997 -43.48262 26176 ft 358 kts 256°
2026-05-05 00:01 -23.36586 -43.50882 26175 ft 357 kts 256°
2026-05-05 00:01 -23.37175 -43.53517 26176 ft 357 kts 256°
2026-05-05 00:02 -23.37767 -43.56137 26177 ft 357 kts 256°
2026-05-05 00:02 -23.38362 -43.58743 26180 ft 357 kts 256°
2026-05-05 00:02 -23.38966 -43.61367 26179 ft 356 kts 256°
2026-05-05 00:02 -23.39572 -43.63986 26179 ft 355 kts 256°
2026-05-05 00:03 -23.40174 -43.66574 26182 ft 355 kts 256°
2026-05-05 00:03 -23.40779 -43.69175 26181 ft 355 kts 256°
2026-05-05 00:03 -23.41387 -43.71788 26180 ft 356 kts 256°
2026-05-05 00:03 -23.41992 -43.74387 26180 ft 356 kts 256°
2026-05-05 00:04 -23.42600 -43.77000 26177 ft 354 kts 256°
2026-05-05 00:04 -23.43201 -43.79584 26179 ft 355 kts 256°
2026-05-05 00:04 -23.43810 -43.82204 26178 ft 355 kts 256°
2026-05-05 00:04 -23.44406 -43.84773 26177 ft 354 kts 256°
2026-05-05 00:05 -23.45014 -43.87397 26176 ft 355 kts 256°
2026-05-05 00:05 -23.45610 -43.89968 26174 ft 355 kts 256°
2026-05-05 00:05 -23.46220 -43.92601 26174 ft 355 kts 256°
2026-05-05 00:05 -23.46818 -43.95187 26174 ft 355 kts 256°
2026-05-05 00:06 -23.47422 -43.97798 26176 ft 354 kts 256°
2026-05-05 00:06 -23.48025 -44.00409 26175 ft 354 kts 256°
2026-05-05 00:06 -23.48625 -44.03011 26173 ft 354 kts 256°
2026-05-05 00:06 -23.49227 -44.05622 26175 ft 354 kts 256°
2026-05-05 00:07 -23.49829 -44.08236 26172 ft 354 kts 256°
2026-05-05 00:07 -23.50428 -44.10837 26166 ft 355 kts 256°
2026-05-05 00:07 -23.51028 -44.13444 26162 ft 356 kts 256°
2026-05-05 00:07 -23.51628 -44.16053 26157 ft 356 kts 256°
2026-05-05 00:08 -23.52235 -44.18690 26155 ft 357 kts 256°
2026-05-05 00:08 -23.52840 -44.21326 26154 ft 355 kts 256°
2026-05-05 00:08 -23.53440 -44.23943 26159 ft 355 kts 256°
2026-05-05 00:08 -23.54036 -44.26544 26157 ft 355 kts 256°
2026-05-05 00:09 -23.54638 -44.29172 26161 ft 355 kts 256°
2026-05-05 00:09 -23.55237 -44.31785 26162 ft 355 kts 256°
2026-05-05 00:09 -23.55825 -44.34356 26161 ft 355 kts 256°
2026-05-05 00:09 -23.56426 -44.36990 26158 ft 355 kts 256°
2026-05-05 00:10 -23.57018 -44.39582 26166 ft 354 kts 256°
2026-05-05 00:10 -23.57611 -44.42182 26166 ft 354 kts 256°
2026-05-05 00:10 -23.58209 -44.44805 26165 ft 355 kts 256°
2026-05-05 00:10 -23.58797 -44.47388 26163 ft 354 kts 256°
2026-05-05 00:11 -23.59391 -44.50000 26168 ft 355 kts 256°
2026-05-05 00:11 -23.59986 -44.52613 26169 ft 354 kts 256°
2026-05-05 00:11 -23.60574 -44.55200 26166 ft 355 kts 256°
2026-05-05 00:11 -23.61164 -44.57797 26176 ft 355 kts 256°
2026-05-05 00:12 -23.61756 -44.60405 26181 ft 355 kts 256°
2026-05-05 00:12 -23.62343 -44.62999 26174 ft 354 kts 256°
2026-05-05 00:12 -23.62933 -44.65606 26171 ft 354 kts 256°
2026-05-05 00:12 -23.63527 -44.68234 26169 ft 354 kts 256°
2026-05-05 00:13 -23.64111 -44.70816 26169 ft 354 kts 256°
2026-05-05 00:13 -23.64680 -44.73334 26170 ft 354 kts 256°
2026-05-05 00:13 -23.65292 -44.76047 26170 ft 354 kts 256°
2026-05-05 00:13 -23.65796 -44.78277 26163 ft 353 kts 256°
2026-05-05 00:14 -23.66432 -44.81098 26169 ft 354 kts 256°
2026-05-05 00:14 -23.67021 -44.83713 26172 ft 355 kts 256°
2026-05-05 00:14 -23.67610 -44.86335 26173 ft 353 kts 256°
2026-05-05 00:14 -23.68188 -44.88907 26177 ft 353 kts 256°
2026-05-05 00:15 -23.68773 -44.91507 26180 ft 354 kts 256°
2026-05-05 00:15 -23.69361 -44.94128 26178 ft 354 kts 256°
2026-05-05 00:15 -23.69946 -44.96734 26178 ft 354 kts 256°
2026-05-05 00:15 -23.70528 -44.99333 26179 ft 353 kts 256°
2026-05-05 00:16 -23.71102 -45.01899 26181 ft 353 kts 256°
2026-05-05 00:16 -23.71689 -45.04524 26181 ft 353 kts 256°
2026-05-05 00:16 -23.72268 -45.07115 26180 ft 354 kts 256°
2026-05-05 00:16 -23.72845 -45.09703 26173 ft 354 kts 256°
2026-05-05 00:17 -23.73431 -45.12327 26178 ft 352 kts 256°
2026-05-05 00:17 -23.74005 -45.14902 26175 ft 353 kts 256°
2026-05-05 00:17 -23.74590 -45.17529 26175 ft 354 kts 256°
2026-05-05 00:17 -23.75169 -45.20132 26175 ft 353 kts 256°
2026-05-05 00:18 -23.75742 -45.22707 26173 ft 353 kts 256°
2026-05-05 00:18 -23.76321 -45.25315 26168 ft 352 kts 256°
2026-05-05 00:18 -23.76900 -45.27927 26176 ft 353 kts 256°
2026-05-05 00:18 -23.77475 -45.30533 26179 ft 353 kts 256°
2026-05-05 00:19 -23.78047 -45.33125 26181 ft 353 kts 256°
2026-05-05 00:19 -23.78614 -45.35698 26187 ft 352 kts 256°
2026-05-05 00:19 -23.79188 -45.38312 26181 ft 352 kts 256°
2026-05-05 00:19 -23.79651 -45.40917 26180 ft 353 kts 261°
2026-05-05 00:20 -23.79923 -45.43575 26179 ft 353 kts 264°
2026-05-05 00:20 -23.80090 -45.46248 26178 ft 354 kts 265°
2026-05-05 00:20 -23.80220 -45.48922 26178 ft 354 kts 265°
2026-05-05 00:20 -23.80340 -45.51594 26178 ft 354 kts 265°
2026-05-05 00:21 -23.80463 -45.54285 26179 ft 354 kts 265°
2026-05-05 00:21 -23.80588 -45.56953 26181 ft 353 kts 265°
2026-05-05 00:21 -23.80717 -45.59625 26170 ft 352 kts 265°
2026-05-05 00:21 -23.80849 -45.62294 26179 ft 353 kts 265°
2026-05-05 00:22 -23.80983 -45.64974 26167 ft 353 kts 265°
2026-05-05 00:22 -23.81117 -45.67626 26158 ft 353 kts 265°
2026-05-05 00:22 -23.81252 -45.70324 26159 ft 352 kts 265°
2026-05-05 00:22 -23.81385 -45.72971 26157 ft 353 kts 265°
2026-05-05 00:23 -23.81521 -45.75668 26149 ft 352 kts 265°
2026-05-05 00:23 -23.81654 -45.78319 26135 ft 351 kts 265°
2026-05-05 00:23 -23.81785 -45.80960 25903 ft 345 kts 265°
2026-05-05 00:23 -23.81914 -45.83579 25518 ft 344 kts 265°
2026-05-05 00:24 -23.82042 -45.86168 24999 ft 345 kts 265°
2026-05-05 00:24 -23.82173 -45.88788 24375 ft 347 kts 265°
2026-05-05 00:24 -23.82303 -45.91423 23717 ft 350 kts 265°
2026-05-05 00:24 -23.82436 -45.94111 23022 ft 352 kts 265°
2026-05-05 00:25 -23.82567 -45.96769 22315 ft 355 kts 265°
2026-05-05 00:25 -23.82699 -45.99476 21634 ft 357 kts 265°
2026-05-05 00:25 -23.82830 -46.02191 21220 ft 362 kts 265°
2026-05-05 00:25 -23.82963 -46.04933 20732 ft 367 kts 265°
2026-05-05 00:26 -23.83096 -46.07722 20229 ft 364 kts 265°
2026-05-05 00:26 -23.83225 -46.10439 19725 ft 360 kts 265°
2026-05-05 00:26 -23.83354 -46.13161 19235 ft 356 kts 265°
2026-05-05 00:26 -23.83481 -46.15858 18737 ft 352 kts 265°
2026-05-05 00:27 -23.83606 -46.18512 18242 ft 348 kts 265°
2026-05-05 00:27 -23.83729 -46.21125 17746 ft 345 kts 266°
2026-05-05 00:27 -23.83852 -46.23735 17261 ft 342 kts 266°
2026-05-05 00:27 -23.83975 -46.26319 16783 ft 339 kts 266°
2026-05-05 00:28 -23.84095 -46.28846 16294 ft 337 kts 266°
2026-05-05 00:28 -23.84215 -46.31383 15812 ft 335 kts 266°
2026-05-05 00:28 -23.84335 -46.33922 15334 ft 339 kts 266°
2026-05-05 00:28 -23.84457 -46.36523 14828 ft 340 kts 266°
2026-05-05 00:29 -23.84577 -46.39090 14337 ft 338 kts 266°
2026-05-05 00:29 -23.84696 -46.41645 13847 ft 335 kts 266°
2026-05-05 00:29 -23.84811 -46.44154 13374 ft 333 kts 266°
2026-05-05 00:29 -23.84926 -46.46663 12889 ft 330 kts 266°
2026-05-05 00:30 -23.85039 -46.49183 12406 ft 328 kts 266°
2026-05-05 00:30 -23.85150 -46.51638 11932 ft 325 kts 266°
2026-05-05 00:30 -23.85261 -46.54078 11467 ft 323 kts 266°
2026-05-05 00:30 -23.85370 -46.56521 11009 ft 320 kts 267°
2026-05-05 00:31 -23.85448 -46.58930 10663 ft 314 kts 270°
2026-05-05 00:31 -23.85178 -46.61259 10521 ft 301 kts 285°
2026-05-05 00:31 -23.84256 -46.63222 10419 ft 289 kts 308°
2026-05-05 00:31 -23.82745 -46.64638 10308 ft 278 kts 325°
2026-05-05 00:32 -23.81135 -46.65736 10007 ft 275 kts 327°
2026-05-05 00:32 -23.79512 -46.66844 9625 ft 275 kts 326°
2026-05-05 00:32 -23.77903 -46.67960 9285 ft 273 kts 326°
2026-05-05 00:32 -23.76299 -46.69076 9231 ft 271 kts 326°
2026-05-05 00:33 -23.74724 -46.70174 9225 ft 275 kts 326°
2026-05-05 00:33 -23.73098 -46.71304 9226 ft 275 kts 326°
2026-05-05 00:33 -23.71475 -46.72430 9218 ft 273 kts 326°
2026-05-05 00:33 -23.69975 -46.73470 9014 ft 269 kts 326°
2026-05-05 00:34 -23.68348 -46.74598 8635 ft 269 kts 327°
2026-05-05 00:34 -23.66791 -46.75677 8285 ft 268 kts 327°
2026-05-05 00:34 -23.65212 -46.76771 7958 ft 266 kts 327°
2026-05-05 00:34 -23.63649 -46.77853 7637 ft 263 kts 327°
2026-05-05 00:35 -23.62106 -46.78922 7334 ft 260 kts 327°
2026-05-05 00:35 -23.60608 -46.79959 7202 ft 250 kts 327°
2026-05-05 00:35 -23.59132 -46.80943 7029 ft 243 kts 331°
2026-05-05 00:35 -23.57592 -46.81554 6877 ft 234 kts 353°
2026-05-05 00:36 -23.56005 -46.81251 6587 ft 234 kts 26°
2026-05-05 00:36 -23.54782 -46.80052 6154 ft 242 kts 53°
2026-05-05 00:36 -23.53880 -46.78492 5798 ft 242 kts 57°
2026-05-05 00:36 -23.53014 -46.76946 5494 ft 240 kts 58°
2026-05-05 00:37 -23.52305 -46.75315 5184 ft 236 kts 72°
2026-05-05 00:37 -23.52269 -46.73594 4940 ft 225 kts 107°
2026-05-05 00:37 -23.53076 -46.72252 4617 ft 210 kts 140°
2026-05-05 00:37 -23.54233 -46.71395 4382 ft 191 kts 151°
2026-05-05 00:38 -23.55337 -46.70702 4115 ft 178 kts 149°
2026-05-05 00:38 -23.56332 -46.69998 3937 ft 160 kts 147°
2026-05-05 00:38 -23.57248 -46.69362 3699 ft 152 kts 149°
2026-05-05 00:38 -23.58119 -46.68772 3527 ft 147 kts 148°
2026-05-05 00:39 -23.58991 -46.68167 3339 ft 147 kts 148°
2026-05-05 00:39 -23.59854 -46.67585 3156 ft 148 kts 149°
2026-05-05 00:39 -23.60727 -46.67001 2989 ft 149 kts 148°
2026-05-05 00:39 -23.61613 -46.66384 2781 ft 151 kts 148°
2026-05-05 00:40 -23.62485 -46.65773 2654 ft 150 kts 148°
2026-05-05 00:40 -23.63113 -46.65339 2672 ft 59 kts 147°
2026-05-05 00:40 -23.63339 -46.65203 2671 ft 23 kts 173°
2026-05-05 00:40 -23.63406 -46.65275 2668 ft 12 kts 310°
2026-05-05 00:41 -23.63336 -46.65328 2671 ft 10 kts 329°
2026-05-05 00:41 -23.63273 -46.65370 2671 ft 10 kts 328°
2026-05-05 00:41 -23.63209 -46.65415 2671 ft 11 kts 326°
2026-05-05 00:41 -23.63144 -46.65460 2671 ft 11 kts 328°
2026-05-05 00:42 -23.63075 -46.65506 2671 ft 12 kts 334°
2026-05-05 00:42 -23.62975 -46.65545 2670 ft 16 kts 335°
2026-05-05 00:42 -23.62873 -46.65614 2667 ft 18 kts 326°
2026-05-05 00:42 -23.62758 -46.65693 2663 ft 21 kts 327°
2026-05-05 00:43 -23.62702 -46.65786 2658 ft 7 kts 245°
2026-05-05 00:43 -23.62717 -46.65813 2657 ft 1 kts 238°
2026-05-05 00:43 -23.62718 -46.65816 2657 ft 0 kts 238°
2026-05-05 00:43 -23.62719 -46.65816 2657 ft 0 kts 238°